• In Hungary
  • List of Countries
  • For 7 days
  • Water Temperature
  • Satellite Maps
  • Weather Map
  • News
  • Weather Widgets
  • user-avatar
    Login

    Hourly Weather Borovec

    Today, 16 October, Tuesday

    Time Temperature Precipitation Wind Pressure Humidity
    00:00 +11°C° 0 mm 1 mps 715 mmHg 76%
    01:00 +11°C° 0 mm 1 mps 715 mmHg 77%
    02:00 +11°C° 0 mm 1 mps 715 mmHg 79%
    03:00 +10°C° 0 mm 1 mps 715 mmHg 79%
    04:00 +10°C° 0 mm 1 mps 715 mmHg 80%
    05:00 +10°C° 0 mm 1 mps 715 mmHg 81%
    06:00 +11°C° 0 mm 1 mps 715 mmHg 77%
    07:00 +12°C° 0 mm 1 mps 715 mmHg 72%
    08:00 +13°C° 0 mm 1 mps 716 mmHg 68%
    09:00 +15°C° 0 mm 1 mps 716 mmHg 58%
    10:00 +18°C° 0 mm 1 mps 716 mmHg 48%
    11:00 +20°C° 0 mm 2 mps 716 mmHg 38%
    12:00 +20°C° 0 mm 2 mps 716 mmHg 35%
    13:00 +21°C° 0 mm 2 mps 716 mmHg 32%
    14:00 +23°C° 0 mm 2 mps 716 mmHg 30%
    15:00 +21°C° 0 mm 2 mps 715 mmHg 33%
    16:00 +20°C° 0 mm 2 mps 715 mmHg 36%
    17:00 +19°C° 0 mm 2 mps 715 mmHg 40%
    18:00 +18°C° 0 mm 1 mps 715 mmHg 45%
    19:00 +15°C° 0 mm 1 mps 715 mmHg 50%
    20:00 +13°C° 0 mm 1 mps 715 mmHg 55%
    21:00 +12°C° 0 mm 1 mps 715 mmHg 57%
    22:00 +12°C° 0 mm 1 mps 715 mmHg 59%
    23:00 +12°C° 0 mm 1 mps 715 mmHg 60%

    Tomorrow, 17 October, Wednesday

    Time Temperature Precipitation Wind Pressure Humidity
    00:00 +11°C° 0 mm 1 mps 715 mmHg 61%
    01:00 +11°C° 0 mm 1 mps 714 mmHg 62%
    02:00 +11°C° 0 mm 1 mps 714 mmHg 63%
    03:00 +11°C° 0 mm 1 mps 714 mmHg 64%
    04:00 +10°C° 0 mm 1 mps 714 mmHg 65%
    05:00 +10°C° 0 mm 1 mps 714 mmHg 66%
    06:00 +11°C° 0 mm 1 mps 714 mmHg 63%
    07:00 +12°C° 0 mm 1 mps 714 mmHg 60%
    08:00 +13°C° 0 mm 1 mps 714 mmHg 58%
    09:00 +15°C° 0 mm 1 mps 714 mmHg 51%
    10:00 +19°C° 0 mm 1 mps 715 mmHg 45%
    11:00 +21°C° 0 mm 1 mps 715 mmHg 38%
    12:00 +21°C° 0 mm 2 mps 714 mmHg 37%
    13:00 +23°C° 0 mm 2 mps 714 mmHg 35%
    14:00 +23°C° 0 mm 2 mps 714 mmHg 34%
    15:00 +21°C° 0 mm 2 mps 713 mmHg 38%
    16:00 +20°C° 0 mm 2 mps 713 mmHg 42%
    17:00 +19°C° 0 mm 2 mps 712 mmHg 47%
    18:00 +18°C° 0 mm 1 mps 712 mmHg 54%
    19:00 +16°C° 0 mm 1 mps 712 mmHg 61%
    20:00 +14°C° 0 mm 1 mps 712 mmHg 69%
    21:00 +13°C° 0 mm 1 mps 712 mmHg 71%
    22:00 +13°C° 0 mm 1 mps 712 mmHg 73%
    23:00 +12°C° 0 mm 1 mps 712 mmHg 76%

    Day after tomorrow, 18 October, Thursday

    Time Temperature Precipitation Wind Pressure Humidity
    00:00 +12°C° 0 mm 1 mps 712 mmHg 77%
    01:00 +12°C° 0 mm 1 mps 712 mmHg 78%
    02:00 +11°C° 0 mm 0 mps 712 mmHg 79%
    03:00 +10°C° 0 mm 0 mps 712 mmHg 80%
    04:00 +11°C° 0 mm 1 mps 712 mmHg 81%
    05:00 +11°C° 0 mm 1 mps 712 mmHg 82%
    06:00 +12°C° 0 mm 1 mps 712 mmHg 78%
    07:00 +13°C° 0 mm 1 mps 712 mmHg 75%
    08:00 +14°C° 0 mm 1 mps 712 mmHg 72%
    09:00 +16°C° 0 mm 1 mps 712 mmHg 65%
    10:00 +19°C° 0 mm 1 mps 713 mmHg 57%
    11:00 +21°C° 0 mm 1 mps 713 mmHg 49%
    12:00 +21°C° 0 mm 2 mps 712 mmHg 47%
    13:00 +23°C° 0 mm 2 mps 712 mmHg 44%
    14:00 +24°C° 0 mm 2 mps 712 mmHg 41%
    15:00 +23°C° 0 mm 2 mps 711 mmHg 45%
    16:00 +21°C° 0 mm 2 mps 711 mmHg 48%
    17:00 +20°C° 0 mm 2 mps 711 mmHg 52%
    18:00 +19°C° 0 mm 1 mps 711 mmHg 59%
    19:00 +16°C° 0 mm 1 mps 711 mmHg 65%
    20:00 +14°C° 0 mm 1 mps 711 mmHg 72%
    21:00 +14°C° 0 mm 1 mps 711 mmHg 74%
    22:00 +13°C° 0 mm 1 mps 711 mmHg 76%
    23:00 +12°C° 0 mm 0 mps 712 mmHg 77%

    19 October, Friday

    Time Temperature Precipitation Wind Pressure Humidity
    00:00 +12°C° 0 mm 0 mps 712 mmHg 78%
    01:00 +11°C° 0 mm 0 mps 712 mmHg 79%
    02:00 +11°C° 0 mm 0 mps 712 mmHg 80%
    03:00 +11°C° 0 mm 0 mps 712 mmHg 80%
    04:00 +11°C° 0 mm 0 mps 712 mmHg 81%
    05:00 +11°C° 0 mm 0 mps 711 mmHg 81%
    06:00 +11°C° 0 mm 0 mps 712 mmHg 77%
    07:00 +12°C° 0 mm 0 mps 712 mmHg 74%
    08:00 +13°C° 0 mm 0 mps 712 mmHg 70%
    09:00 +16°C° 0 mm 0 mps 713 mmHg 61%
    10:00 +18°C° 0 mm 0 mps 713 mmHg 53%
    11:00 +21°C° 0 mm 0 mps 713 mmHg 44%
    12:00 +23°C° 0 mm 1 mps 713 mmHg 43%
    13:00 +24°C° 0 mm 1 mps 712 mmHg 41%
    14:00 +24°C° 0 mm 1 mps 712 mmHg 39%
    15:00 +23°C° 0 mm 1 mps 712 mmHg 43%
    16:00 +22°C° 0 mm 1 mps 712 mmHg 47%
    17:00 +21°C° 0 mm 1 mps 712 mmHg 50%
    18:00 +19°C° 0 mm 1 mps 712 mmHg 56%
    19:00 +18°C° 0 mm 1 mps 712 mmHg 62%
    20:00 +15°C° 0 mm 1 mps 712 mmHg 68%
    21:00 +15°C° 0 mm 1 mps 712 mmHg 70%
    22:00 +14°C° 0 mm 1 mps 712 mmHg 72%
    23:00 +14°C° 0 mm 1 mps 712 mmHg 74%

    20 October, Saturday

    Time Temperature Precipitation Wind Pressure Humidity
    00:00 +13°C° 0 mm 1 mps 712 mmHg 76%
    01:00 +13°C° 0 mm 1 mps 712 mmHg 77%
    02:00 +13°C° 0 mm 1 mps 712 mmHg 78%
    03:00 +12°C° 0 mm 1 mps 712 mmHg 79%
    04:00 +12°C° 0 mm 1 mps 712 mmHg 81%
    05:00 +12°C° 0 mm 1 mps 712 mmHg 82%
    06:00 +13°C° 0 mm 1 mps 713 mmHg 79%
    07:00 +13°C° 0 mm 1 mps 713 mmHg 76%
    08:00 +14°C° 0 mm 1 mps 713 mmHg 73%
    09:00 +16°C° 0 mm 1 mps 713 mmHg 63%
    10:00 +18°C° 0 mm 2 mps 714 mmHg 54%
    11:00 +20°C° 0 mm 2 mps 714 mmHg 45%
    12:00 +21°C° 0 mm 2 mps 714 mmHg 43%
    13:00 +21°C° 0 mm 2 mps 713 mmHg 41%
    14:00 +22°C° 0 mm 3 mps 713 mmHg 39%
    15:00 +21°C° 0 mm 3 mps 713 mmHg 43%
    16:00 +20°C° 0 mm 2 mps 713 mmHg 47%
    17:00 +19°C° 0 mm 2 mps 713 mmHg 50%
    18:00 +17°C° 0 mm 2 mps 713 mmHg 56%
    19:00 +16°C° 0 mm 2 mps 713 mmHg 63%
    20:00 +14°C° 0 mm 1 mps 713 mmHg 69%
    21:00 +13°C° 0 mm 1 mps 713 mmHg 72%
    22:00 +12°C° 0 mm 1 mps 713 mmHg 76%
    23:00 +12°C° 0 mm 1 mps 714 mmHg 79%

    21 October, Sunday

    Time Temperature Precipitation Wind Pressure Humidity
    00:00 +11°C° 0 mm 1 mps 714 mmHg 81%
    01:00 +11°C° 0 mm 1 mps 714 mmHg 83%
    02:00 +10°C° 0 mm 1 mps 714 mmHg 85%
    03:00 +10°C° 0 mm 1 mps 714 mmHg 86%
    04:00 +10°C° 0 mm 1 mps 714 mmHg 87%
    05:00 +9°C° 0 mm 1 mps 714 mmHg 88%
    06:00 +10°C° 0 mm 1 mps 714 mmHg 85%
    07:00 +11°C° 0 mm 1 mps 715 mmHg 82%
    08:00 +11°C° 0 mm 1 mps 715 mmHg 78%
    09:00 +13°C° 0 mm 1 mps 715 mmHg 69%
    10:00 +15°C° 0 mm 1 mps 716 mmHg 59%
    11:00 +17°C° 0 mm 2 mps 716 mmHg 50%
    12:00 +18°C° 0 mm 2 mps 716 mmHg 49%
    13:00 +18°C° 0 mm 2 mps 715 mmHg 48%
    14:00 +19°C° 0 mm 2 mps 715 mmHg 47%
    15:00 +18°C° 0 mm 2 mps 715 mmHg 50%
    16:00 +17°C° 0 mm 2 mps 715 mmHg 54%
    17:00 +16°C° 0 mm 2 mps 715 mmHg 58%
    18:00 +15°C° 0 mm 1 mps 715 mmHg 65%
    19:00 +13°C° 0 mm 1 mps 715 mmHg 72%
    20:00 +12°C° 0 mm 1 mps 715 mmHg 79%
    21:00 +12°C° 0 mm 1 mps 715 mmHg 80%
    22:00 +11°C° 0 mm 1 mps 716 mmHg 82%
    23:00 +11°C° 0 mm 1 mps 716 mmHg 84%
    Show more